Weather History for Ankara, Turkey

Change the Weather History Date:

Tuesday, March 12, 2013

  Actual Average Record
Temperature  
Mean Temperature 50 °F -  
Max Temperature 60 °F 53 °F 68 °F (2002)
Min Temperature 41 °F 30 °F 12 °F (2011)
Degree Days  
Heating Degree Days 14    
Moisture  
Dew Point 43 °F    
Average Humidity 76    
Maximum Humidity 100    
Minimum Humidity 48    
Precipitation  
Precipitation 0.28 in - - ()
Sea Level Pressure  
Sea Level Pressure 29.70 in    
Wind  
Wind Speed 7 mph ()    
Max Wind Speed 25 mph    
Max Gust Speed 39 mph    
Visibility 6.4 miles    
Events Rain    
Averages and records for this station are not official NWS values.
T = Trace of Precipitation, MM = Missing Value Source: Averaged Metar Reports

Daily Weather History Graph

Daily Weather History Graph

Search for Another Location

Airport:

Trip Planner

Search our weather history database for the weather conditions in past years. The results will help you decide how hot, cold, wet, or windy it might be!

Date:

Astronomy

Mar. 12, 2013 Rise Set
Actual Time 6:04 AM EET 5:51 PM EET
Civil Twilight 5:37 AM EET 6:18 PM EET
Nautical Twilight 5:06 AM EET 6:50 PM EET
Astronomical Twilight 4:34 AM EET 7:21 PM EET
Moon 5:59 AM EET (3/12) 6:45 PM EET (3/12)
Length of Visible Light 12h 41m
Length of Day
11h 47m
New Moon, 0% of the Moon is Illuminated
Mar 12
New Moon
Mar 19
First Quarter
Mar 27
Full
Apr 3
Last Quarter
Apr 10
New

Hourly Weather History & Observations

Time (EET) Temp. Windchill Dew Point Humidity Pressure Visibility Wind Dir Wind Speed Gust Speed Precip Events Conditions
12:20 AM 51.8 °F - 41.0 °F 67% 29.71 in 6.2 mi SSE 6.9 mph - N/A   Mostly Cloudy
12:50 AM 50.0 °F - 39.2 °F 66% 29.74 in 6.2 mi South 5.8 mph - N/A   Mostly Cloudy
1:20 AM 50.0 °F - 39.2 °F 66% 29.74 in 6.2 mi SSW 3.5 mph - N/A   Mostly Cloudy
1:50 AM 48.2 °F - 39.2 °F 71% 29.74 in 6.2 mi SSW 5.8 mph - N/A   Mostly Cloudy
2:00 AM 48 °F - 40 °F 64% 29.70 in 12 mi SSW 5.8 mph - -   Partly Cloudy
2:20 AM 50.0 °F - 41.0 °F 71% 29.74 in 6.2 mi South 4.6 mph - N/A   Mostly Cloudy
2:50 AM 48.2 °F - 39.2 °F 71% 29.71 in 6.2 mi SSW 5.8 mph - N/A   Mostly Cloudy
3:20 AM 48.2 °F - 39.2 °F 71% 29.71 in 6.2 mi SSE 5.8 mph - N/A   Mostly Cloudy
3:50 AM 46.4 °F 45.2 °F 39.2 °F 76% 29.71 in 6.2 mi South 3.5 mph - N/A   Mostly Cloudy
4:20 AM 46.4 °F 45.2 °F 39.2 °F 76% 29.71 in 6.2 mi SSE 3.5 mph - N/A   Mostly Cloudy
4:50 AM 48.2 °F - 39.2 °F 71% 29.71 in 6.2 mi South 5.8 mph - N/A   Mostly Cloudy
5:20 AM 46.4 °F 45.2 °F 39.2 °F 76% 29.74 in 6.2 mi South 3.5 mph - N/A   Mostly Cloudy
5:50 AM 46.4 °F - 39.2 °F 76% 29.74 in 6.2 mi Variable 1.2 mph - N/A   Mostly Cloudy
6:20 AM 48.2 °F - 39.2 °F 71% 29.74 in 6.2 mi South 8.1 mph - N/A   Mostly Cloudy
6:50 AM 48.2 °F - 41.0 °F 76% 29.74 in 6.2 mi South 5.8 mph - N/A   Mostly Cloudy
7:20 AM 48.2 °F - 41.0 °F 76% 29.74 in 6.2 mi SE 4.6 mph - N/A   Mostly Cloudy
7:50 AM 50.0 °F - 41.0 °F 71% 29.74 in 6.2 mi Variable 2.3 mph - N/A   Mostly Cloudy
8:00 AM 51 °F - 41 °F 58% 29.73 in 12 mi SE 2.3 mph - -   Partly Cloudy
8:20 AM 53.6 °F - 42.8 °F 67% 29.74 in 6.2 mi SW 5.8 mph - N/A   Mostly Cloudy
8:50 AM 55.4 °F - 42.8 °F 63% 29.74 in 6.2 mi SSW 8.1 mph - N/A   Mostly Cloudy
9:20 AM 57.2 °F - 42.8 °F 59% 29.74 in 6.2 mi SSW 15.0 mph - N/A   Mostly Cloudy
9:50 AM 57.2 °F - 42.8 °F 59% 29.74 in 6.2 mi SSW 11.5 mph - N/A   Mostly Cloudy
10:20 AM 57.2 °F - 44.6 °F 63% 29.74 in 6.2 mi SSW 11.5 mph - N/A   Mostly Cloudy
10:50 AM 57.2 °F - 44.6 °F 63% 29.74 in 6.2 mi SW 13.8 mph - N/A   Mostly Cloudy
11:20 AM 59.0 °F - 42.8 °F 55% 29.74 in 6.2 mi SW 12.7 mph - N/A   Mostly Cloudy
11:50 AM 60.8 °F - 41.0 °F 48% 29.74 in 6.2 mi SW 17.3 mph - N/A   Mostly Cloudy
12:20 PM 59.0 °F - 42.8 °F 55% 29.74 in 6.2 mi SW 19.6 mph - N/A Rain Light Rain Showers
12:50 PM 57.2 °F - 42.8 °F 59% 29.74 in 6.2 mi SW 15.0 mph - N/A Rain Light Rain Showers
1:20 PM 55.4 °F - 44.6 °F 67% 29.71 in 6.2 mi WSW 15.0 mph - N/A Rain Light Rain Showers
1:50 PM 51.8 °F - 46.4 °F 82% 29.71 in 6.2 mi West 4.6 mph - N/A Rain Light Rain Showers
2:00 PM 53 °F - 47 °F 73% 29.70 in 6 mi West 4.6 mph - - Rain Light Rain Showers
2:20 PM 51.8 °F - 48.2 °F 88% 29.71 in 5.0 mi SSW 3.5 mph - N/A Rain Light Rain Showers
2:50 PM 51.8 °F - 48.2 °F 88% 29.71 in 6.2 mi South 3.5 mph - N/A Rain Light Rain Showers
3:20 PM 51.8 °F - 48.2 °F 88% 29.71 in 6.2 mi SSW 9.2 mph - N/A Rain Light Rain Showers
3:50 PM 50.0 °F - 48.2 °F 94% 29.68 in 3.7 mi South 12.7 mph - N/A Rain Rain Showers
4:50 PM 50.0 °F - 46.4 °F 87% 29.65 in 6.2 mi SSW 11.5 mph - N/A Rain Light Rain Showers
5:20 PM 50.0 °F - 48.2 °F 94% 29.62 in 6.2 mi South 11.5 mph - N/A Rain Light Rain Showers
5:50 PM 50.0 °F - 46.4 °F 87% 29.62 in 6.2 mi SSW 8.1 mph - N/A   Mostly Cloudy
6:20 PM 50.0 °F - 46.4 °F 87% 29.59 in 6.2 mi SSW 3.5 mph - N/A   Mostly Cloudy
6:50 PM 48.2 °F - 46.4 °F 93% 29.59 in 6.2 mi South 8.1 mph - N/A   Mostly Cloudy
7:20 PM 48.2 °F - 44.6 °F 87% 29.59 in 6.2 mi South 11.5 mph - N/A   Mostly Cloudy
7:50 PM 48.2 °F - 46.4 °F 93% 29.59 in 6.2 mi SSW 9.2 mph - N/A   Mostly Cloudy
8:00 PM 48 °F - 46 °F 88% 29.58 in 12 mi SSW 9.2 mph - -   Partly Cloudy
8:09 PM 51.8 °F - 42.8 °F 71% 29.62 in 6.2 mi WSW 17.3 mph 39.1 mph N/A Rain Light Rain Showers
8:20 PM 46.4 °F 37.9 °F 41.0 °F 81% 29.65 in 6.2 mi West 25.3 mph - N/A Rain Light Rain Showers
8:50 PM 44.6 °F 40.7 °F 41.0 °F 87% 29.65 in 6.2 mi WNW 6.9 mph - N/A Rain Light Rain Showers
9:20 PM 44.6 °F 42.2 °F 41.0 °F 87% 29.65 in 6.2 mi SW 4.6 mph - N/A Rain Light Rain Showers
9:50 PM 44.6 °F 40.7 °F 42.8 °F 93% 29.71 in 2.5 mi SSW 6.9 mph - N/A Rain Rain Showers
10:20 PM 42.8 °F 38.0 °F 41.0 °F 93% 29.71 in 6.2 mi South 8.1 mph - N/A Rain Light Rain Showers
10:50 PM 41.0 °F 35.8 °F 41.0 °F 100% 29.71 in 6.2 mi South 8.1 mph - N/A Rain Light Rain Showers
11:20 PM 41.0 °F 35.2 °F 39.2 °F 93% 29.71 in 6.2 mi South 9.2 mph - N/A Rain Light Rain Showers
11:50 PM 42.8 °F 38.6 °F 41.0 °F 93% 29.71 in 6.2 mi SSE 6.9 mph - N/A   Mostly Cloudy